(130) Elektra
ephemeris date magn radius delta ra dec elong phase
Today15 Sep 202511.62.470 AU1.762 AU03h14m-11°12'124.0°19.7°
Opposition29 Oct 202511.22.484 AU1.603 AU03h02m-19°22'145.1°13.2°
(130) Elektra - 2025-09-15
astro.vanbuitenen.nl


 
-1 year
-1 month
-1 day
Now
+1 day
+1 month
+1 year

The interactive orbit chart above shows the body's path through the solar system and its position at the given date. Green and blue lines are shown perpendicular to the ecliptic plane: Green if the path is above the ecliptic plane, blue if it is below. (Left-click and drag to rotate the view; Right-click and drag to move the view; Use scroll wheel to zoom in our out.)

The orbital elements of Elektra are:

            e (Eccentricity)                : 0.2094968
            a (Semimajor axis)              : 3.1241709
            i (Inclination)                 : 22.78322
            Ω (Longitude of ascending node) : 144.97162
            ω (Argument of perihelion)      : 237.90502
            M (Mean anomaly)                : 337.75506
            Epoch                           : 2025 May 05

            L (Longitude of perihelion)     : 200.74603
            B (Latitude of perihelion)      : -19.15120
            P (Orbital period in years)     : 5.52            
        

The light curve chart below shows the estimated development of the minor planet's magnitude.


The all-sky chart below shows the path of the minor planet over the same period as the light curve. The current position is marked yellow.





The following chart shows the path of the minor planet in the next few days. The field of view is optimized for (~10x50) binoculars and finderscopes. A more printer-friendly version of the same chart can be found below.




Ephemerides:
Date       Time       RA (2000)    DEC (2000)    delta   radius  elong  phase   PA    magn
2025-09-15 00:00 UT   03 14 30.5   -11 12 32     1.762    2.470  124.0   19.7   274   11.6 
2025-09-15 14:32 UT   03 14 41.2   -11 19 59     1.758    2.470  124.5   19.6   274   11.6 
2025-09-16 00:00 UT   03 14 47.9   -11 24 51     1.755    2.470  124.7   19.5   275   11.6 
2025-09-17 00:00 UT   03 15 03.6   -11 37 14     1.748    2.470  125.4   19.4   275   11.6 
2025-09-18 00:00 UT   03 15 17.7   -11 49 41     1.740    2.470  126.2   19.2   276   11.6 
2025-09-19 00:00 UT   03 15 30.2   -12 02 12     1.733    2.470  126.9   19.0   277   11.6 
2025-09-20 00:00 UT   03 15 40.9   -12 14 45     1.726    2.471  127.6   18.8   278   11.6 
2025-09-21 00:00 UT   03 15 50.0   -12 27 21     1.720    2.471  128.3   18.6   279   11.6 
2025-09-22 00:00 UT   03 15 57.5   -12 39 58     1.713    2.471  129.0   18.4   280   11.5 
2025-09-23 00:00 UT   03 16 03.2   -12 52 37     1.707    2.471  129.7   18.2   281   11.5 
2025-09-24 00:00 UT   03 16 07.3   -13 05 17     1.700    2.471  130.3   18.0   282   11.5 
2025-09-25 00:00 UT   03 16 09.7   -13 17 57     1.694    2.471  131.0   17.8   283   11.5 
2025-09-26 00:00 UT   03 16 10.4   -13 30 36     1.689    2.472  131.7   17.6   284   11.5 
2025-09-27 00:00 UT   03 16 09.5   -13 43 15     1.683    2.472  132.4   17.4   285   11.5 
2025-09-28 00:00 UT   03 16 06.9   -13 55 52     1.677    2.472  133.0   17.2   286   11.5 
2025-09-29 00:00 UT   03 16 02.6   -14 08 27     1.672    2.472  133.7   17.0   287   11.4 
2025-09-30 00:00 UT   03 15 56.7   -14 20 59     1.667    2.472  134.3   16.9   288   11.4 
2025-10-01 00:00 UT   03 15 49.2   -14 33 28     1.662    2.473  134.9   16.7   290   11.4 
2025-10-02 00:00 UT   03 15 40.0   -14 45 53     1.657    2.473  135.6   16.5   291   11.4 
2025-10-03 00:00 UT   03 15 29.2   -14 58 14     1.652    2.473  136.2   16.3   292   11.4 
2025-10-04 00:00 UT   03 15 16.9   -15 10 29     1.648    2.473  136.8   16.1   294   11.4 
2025-10-05 00:00 UT   03 15 02.9   -15 22 39     1.643    2.474  137.4   15.9   295   11.4 
2025-10-06 00:00 UT   03 14 47.4   -15 34 43     1.639    2.474  137.9   15.7   296   11.4 
2025-10-07 00:00 UT   03 14 30.3   -15 46 40     1.636    2.474  138.5   15.5   298   11.3 
2025-10-08 00:00 UT   03 14 11.7   -15 58 29     1.632    2.475  139.0   15.4   299   11.3 
2025-10-09 00:00 UT   03 13 51.7   -16 10 10     1.628    2.475  139.6   15.2   301   11.3 
2025-10-10 00:00 UT   03 13 30.1   -16 21 42     1.625    2.475  140.1   15.0   302   11.3 
2025-10-11 00:00 UT   03 13 07.1   -16 33 05     1.622    2.476  140.5   14.8   304   11.3 
2025-10-12 00:00 UT   03 12 42.6   -16 44 18     1.619    2.476  141.0   14.7   306   11.3 
2025-10-13 00:00 UT   03 12 16.7   -16 55 20     1.617    2.476  141.5   14.5   307   11.3 
2025-10-14 00:00 UT   03 11 49.5   -17 06 11     1.614    2.477  141.9   14.4   309   11.3 
2025-10-15 00:00 UT   03 11 21.0   -17 16 50     1.612    2.477  142.3   14.3   311   11.3 


    Terminology:
            
    delta:  distance between minor planet and earth in AU
    radius: distance between minor planet and sun in AU
    magn:   magnitude (brightness) estimate    
    ra:     right ascension in hours (24h = 360deg)
    dec:    declination in degrees
    elong:  elongation in degrees (angle sun-earth-minor planet)    
    phase:  phase angle in degrees (angle sun-minor planet-earth)        
    AU:     Astronomical Unit (mean distance between earth and sun: 149597870.7 km
    

Orbital elements provided by the MPC (Minor Planet Center).
Calculations by a modified version of AAPlus, a C# implementation of the AA+ project by PJ Naughter from the algorithms presented in the book "Astronomical Algorithms" by Jean Meeus.
NGC2000 dso catalog and star labels from VizieR as provided by the Strasbourg astronomical Data Center.
Tycho2 catalog from the ESO archive.